Regional Weather Roundup
Issued by NWS

Home | Current Version | Previous Version | Text Only | Print | Product List | Glossary On
Versions: 1 2 3 4 5 6 7 8 9 10 11 12 13 14 15 16 17 18 19 20 21 22 23 24 25 26 27 28
000
ASCA42 TJSJ 220910
RWRPR
PUERTO RICO/U.S. VIRGIN ISLANDS HOURLY WEATHER ROUNDUP
NATIONAL WEATHER SERVICE SAN JUAN PR
500 AM AST SUN JAN 22 2017

PRZ001>002-007>008-010-221000-
PUERTO RICO

CITY           SKY/WX    TMP DP  RH WIND       PRES   REMARKS
SAN JUAN LMM   PTCLDY    73  68  83 CALM      29.97R
CEIBA          PTCLDY    64  64 100 NW3       29.98S
$$

VIZ001>002-221000-
U.S. VIRGIN ISLANDS

CITY           SKY/WX    TMP DP  RH WIND       PRES   REMARKS
CHARLOTTE AMA  CLEAR     73  64  73 NE3       29.95R
CHRISTIANSTED  MOCLDY    68  64  88 N3        29.96R
$$

HOURLY WEATHER ROUNDUP FOR THE NEWS MEDIA

CITY           SKY/WX    TMP DP  RH WIND       PRES   REMARKS
ORLANDO        MOCLDY    67  63  87 S12       29.76F
NEW YORK       FOG       44  44 100 S5        29.73F VSB 1/8
NEWARK         CLOUDY    44  43  96 CALM      29.72F FOG
CHICAGO        FOG       41  41 100 CALM      29.57F VSB 1/4
HARTFORD       FOG       39  38  96 S3        29.74F VSB 1/2
BOSTON         CLOUDY    40  40 100 S3        29.75S
DALLAS         CLOUDY    58  35  42 W10G20    29.41R
PHILADELPHIA   FOG       46  45  96 CALM      29.74S VSB 1/2
LOS ANGELES    LGT RAIN  54  49  83 E7G18     30.10F
WASHINGTON DC  FOG       47  46  97 E5        29.70F VSB 1/8



USA.gov is the U.S. government's official web portal to all federal, state and local government web resources and services.